Showing default

FLOCK 4G 34, 62650

Orbit data source: Space-Track

FLOCK 4G 34, 62650 is a payload satellite owned by Planet (US) in SSO that was launched on Tue, 14 Jan 2025 UTC via an FALCON 9 launch vehicle from the Air Force Western Test Range (AFWTR). Payload-class satellites include a variety of spacecraft equipped with specific instruments for various scientific and technological missions. These include communications satellites like Starlink; space stations such as the ISS; scientific satellites like the Hubble; Earth observation satellites from companies like Planet Labs, Umbra, and HawkEye 360; GPS; miniature CubeSats for education and research; and military/defense satellites.

Loading next visibility...
Identifier
62650, 2025-009AT
Orbit
SSO
Country
Flag of USUS
Related business
Manufacturer
Planet
Mission
Partially operational Commercial Imaging
Bus & Motor
CUBESAT 3U, Unknown motor
Mass
5.7 kg wet, 5.7 kg dry
Launch date (UTC)
2025-01-14 (1 year ago)
Launch vehicle
FALCON 9
Launch site
Air Force Western Test Range (AFWTR)
Object type
Payload
Rocket body
Debris
Shape & HBR
Box + 2 Pan, 1.0 m
Radar Cross Section
0.072 m², Medium (>0.1 m² and < 1m²)

Expand to show TLE details & history
Last TLE update: 13 hours ago

TLE from 13 hours ago
0 FLOCK 4G 34
1 62650U 25009AT  26121.98100045  .00011480  00000-0  41821-3 0  9997
2 62650  97.3969 203.8631 0003463 110.7380 249.4231 15.28350510 71859
Epoch: 2026-05-01T23:32Z
TLE epoch observation values (Epoch: 2026-05-01T23:32:38.438Z)
Latitude
-0.00005°
Longitude
-9.20252°
Altitude
484.681 km
Speed
7.622 km/s
True Right ascension
13h 35m 27s
True Declination
0° 00' 00"
Sunlit
Object was in full shadow at epoch
Visualization orbit readout
Latitude
Unknown
Longitude
Unknown
Altitude
Unknown
Speed
Unknown
Apparent Right ascension
Unknown
Apparent Declination
Unknown
Sunlit
N/A
Visualization observer readout
Local Sidereal Time
19:53:38
Azimuth
Unknown
Elevation
Unknown
Doppler factor
Unknown
Orbital elements
Apogee altitude
480.071 km
Perigee altitude
475.323 km
Semi-major axis
6,855.834 km
Eccentricity
0.00035
Inclination
97.3969°
RAAN
203.8631°
Arg. of periapsis
110.738°
True anomaly
249.38595°
Mean anomaly
249.4231°
Eccentric anomaly
249.40453°
Mean motion
3.82343 °/min
Orbital period
94.16 mins
BSTAR
0.00041821
Loading maneuver chart data...
Computing Atmospheric mass density...
Loading historical data...
Loading historical data...
Loading historical data...
Loading historical data...
Loading historical data...
Loading historical data...
Loading historical data...

Documentation

Showing up to 5 results
|